Location: Brunsen
(51.8651°N, 9.8610°E)
Time: 11:50:11
(UTC+00:00)

USA 267 - Pass Details

Date: 23 May 2024
Orbit: 1100 x 1107 km, 123.0° (Epoch: 21 May)

Event Time Altitude Azimuth Distance (km) Brightness Sun altitude
Rises 00:14:39 0° 61° (ENE) 3,923 6.8 -16.4°
Reaches altitude 10° 00:17:08 10° 61° (ENE) 2,963 6.1 -16.3°
Maximum altitude 00:23:42 88° 152° (SSE) 1,108 3.2 -16.1°
Drops below altitude 10° 00:30:16 10° 242° (WSW) 2,956 5.1 -15.8°
Enters shadow 00:30:21 10° 242° (WSW) 2,988 5.1 -15.8°
